Content
SEND FEEDBACK

Daily
Averages
Monthly
Summary
United States of America

GREENFIELD, MASSACHUSETTS


Home > North America > United States > Massachusetts
Elevation: 190 feet     Latitude: 42 37N     Longitude: 072 33W

WEATHER
 
SELECT A DAY
Number of Records: 216,640;   Date Range: 7/1/96 - 11/19/14
 
SHARE

PRINT THIS DATA

[ ← Previous Day ]
WEATHER ALMANAC - AUGUST 8, 2014
[ Next Day → ]
[ °C ]   °F
Weather ElementAverageHighLow
Temperature66 °F80.1 °F (1:52 pm)50 °F (5:52 am)
Dewpoint52.9 °F57.9 °F (10:52 pm)48.9 °F (5:52 am)
Humidity67.7 %96 % (4:52 am)36 % (1:52 pm)
Barometer30.03 in30.07 in (10:52 pm)29.99 in (9:52 pm)
Wind Speed4 mph11.5 mph (2:52 pm)
Weather ElementAverage
Visibility10 mi
Wind DirectionESE (106.3 °)

Weather ElementTotal
Precipitation---
Growing Degree Days15.1 (Base 50)
Averaged from 24 records on August 8, 2014
WEATHER CONDITIONS BREAKOUT
WIND DIRECTION BREAKOUT
WEATHER BY HOUR - AUGUST 8, 2014
[ °C ]   °F
Local TimeTemperatureDewpointHumidityBarometerVisibilityWind DirectionWind SpeedGust SpeedPrecipitationEventsConditions
12:52 AM53.1 °F52.0 °F96 %29.99 in10.0 miCalmPartly Cloudy
1:52 AM53.1 °F51.1 °F93 %29.99 in10.0 miCalmClear
2:52 AM53.1 °F51.1 °F93 %29.99 in10.0 miCalmClear
3:52 AM52.0 °F50.0 °F93 %29.99 in10.0 miCalmClear
4:52 AM51.1 °F50.0 °F96 %30.01 in10.0 miCalmClear
5:52 AM50.0 °F48.9 °F96 %30.03 in10.0 miCalmClear
6:52 AM53.1 °F51.1 °F93 %30.04 in10.0 miCalmClear
7:52 AM60.1 °F55.0 °F83 %30.05 in10.0 miCalmClear
8:52 AM64.9 °F55.0 °F70 %30.05 in10.0 miCalmClear
9:52 AM71.1 °F54.0 °F55 %30.05 in10.0 miNNW (330°)5.8 mphClear
10:52 AM73.9 °F54.0 °F50 %30.05 in10.0 miNorth (10°)11.5 mphClear
11:52 AM75.9 °F54.0 °F46 %30.04 in10.0 miNorth (10°)10.4 mphClear
12:52 PM78.1 °F52.0 °F40 %30.02 in10.0 miNNW (330°)9.2 mphPartly Cloudy
1:52 PM80.1 °F51.1 °F36 %30.01 in10.0 miNNW (340°)9.2 mphMostly Cloudy
2:52 PM80.1 °F51.1 °F36 %30.01 in10.0 miNW (310°)10.4 mphPartly Cloudy
3:52 PM80.1 °F51.1 °F36 %30.00 in10.0 miWNW (290°)11.5 mphScattered Clouds
4:52 PM79.0 °F54.0 °F42 %30.01 in10.0 miNNE (30°)9.2 mphScattered Clouds
5:52 PM79.0 °F50.0 °F36 %30.01 in10.0 miNW (310°)8.1 mphPartly Cloudy
6:52 PM75.9 °F53.1 °F45 %30.02 in10.0 miWNW (300°)5.8 mphClear
7:52 PM71.1 °F55.0 °F57 %30.04 in10.0 miWNW (290°)4.6 mphPartly Cloudy
8:52 PM66.9 °F55.9 °F68 %30.05 in10.0 miCalmClear
9:52 PM63.0 °F57.9 °F84 %30.06 in10.0 miCalmClear
10:52 PM61.0 °F57.0 °F87 %30.07 in10.0 miCalmClear
11:52 PM57.9 °F55.9 °F93 %30.07 in10.0 miCalmClear
Hourly data recorded from KORE, located miles away from Greenfield, Massachusetts







STORIES FROM OUR PARTNERS